NOAA NWS Hourly Roundups by Site

Regional Weather Roundup for Omaha, NE

To Select Another Site Choose from List

Select Site:  

884
ASUS43 KOAX 171710
RWRNE

WEATHER ROUNDUP FOR NEBRASKA
NATIONAL WEATHER SERVICE OMAHA NE
1200 PM CDT SAT AUG 17 2019

NOTES: SATELLITE DATA IS BEING USED TO AUGMENT CLOUD COVER ABOVE
       12000 FEET.
       "FAIR" INDICATES FEW OR NO CLOUDS BELOW 12,000 FEET WITH NO
       SIGNIFICANT WEATHER AND/OR OBSTRUCTIONS TO VISIBILITY.


NEZ001>004-019>022-054>056-171800-
NEBRASKA PANHANDLE

CITY           SKY/WX    TMP DP  RH WIND       PRES   REMARKS
SCOTTSBLUFF    FAIR      78  56  46 W8        29.83F
ALLIANCE       FAIR      73  57  57 W8        29.81S
CHADRON        FAIR      78  60  53 CALM      29.77F
GORDON         FAIR      75  61  62 S8        29.79S
KIMBALL        FAIR      83  38  20 NW7       29.91S
SIDNEY         FAIR      88  40  18 W9        29.87F
$$

NEZ057>060-069>072-079>082-171800-
SOUTHWEST NEBRASKA

CITY           SKY/WX    TMP DP  RH WIND       PRES   REMARKS
NORTH PLATTE   FAIR      81  66  60 S14       29.78F
IMPERIAL       FAIR      81  57  43 S16       29.83F
LEXINGTON      FAIR      80  67  63 SW15      29.82S
MCCOOK         FAIR      82  67  60 S9        29.82F
OGALLALA       FAIR      78  65  63 W3        29.81S
$$

NEZ005>010-023>029-035>040-094-171800-
NORTH CENTRAL NEBRASKA

CITY           SKY/WX    TMP DP  RH WIND       PRES   REMARKS
VALENTINE      FAIR      81  67  62 S14       29.76F
AINSWORTH      FAIR      79  67  66 S17       29.77F
BROKEN BOW     FAIR      80  69  69 S15       29.79F
O`NEILL        FAIR      81  69  68 SE9       29.78F
ORD            FAIR      81  72  74 SE13      29.77F
THEDFORD       PTSUNNY   78  67  69 S9G22     29.78F
$$

NEZ041-046>049-061>064-073>077-083>087-171800-
SOUTH CENTRAL NEBRASKA

CITY           SKY/WX    TMP DP  RH WIND       PRES   REMARKS
GRAND ISLAND   FAIR      82  69  64 S10       29.81F
AURORA         FAIR      80  70  70 S9        29.81S
HASTINGS       FAIR      82  67  60 S9G18     29.83S
HEBRON         FAIR      81  69  67 S8        29.83S
HOLDREGE       FAIR      82  67  60 S12G21    29.82F
KEARNEY        FAIR      82  67  60 S15       29.81F
YORK           FAIR      79  70  73 S9        29.81F
$$

NEZ011>018-030>034-042>045-171800-
NORTHEAST NEBRASKA

CITY           SKY/WX    TMP DP  RH WIND       PRES   REMARKS
NORFOLK        CLOUDY    73  68  84 SE5       29.79F
ALBION         CLOUDY    75  72  88 S7        29.80S
BLAIR          FAIR      78  69  73 S9        29.81S
COLUMBUS       CLOUDY    76  70  82 S7        29.81S
FREMONT        PTSUNNY   77  70  77 SE8       29.81F
TEKAMAH        CLOUDY    78  68  71 S9        29.81S
WAYNE          CLOUDY    74  67  79 SE8       29.79F
$$

NEZ050>053-065>068-078-088>093-171800-
SOUTHEAST NEBRASKA

CITY           SKY/WX    TMP DP  RH WIND       PRES   REMARKS
LINCOLN        FAIR      82  67  60 S12       29.82R
OMAHA EPPLEY   PTSUNNY   79  67  66 S10       29.81S
BEATRICE       FAIR      78  69  73 S17       29.83S
FALLS CITY     FAIR      78  68  71 S14G23    29.83F
NEBRASKA CITY  FAIR      77  69  76 S12       29.85S
PLATTSMOUTH    FAIR      79  70  73 S9        29.83F
$$

NEZ044-045-051>053-067-171800-
OMAHA AREA

CITY           SKY/WX    TMP DP  RH WIND       PRES   REMARKS
OMAHA EPPLEY   PTSUNNY   79  67  66 S10       29.81S
BLAIR          FAIR      78  69  73 S9        29.81S
FREMONT        PTSUNNY   77  70  77 SE8       29.81F
MILLARD        FAIR      80  69  70 S8        29.81S
OFFUTT AFB     MOSUNNY   79  66  65 S10       29.85S
PLATTSMOUTH    FAIR      79  70  73 S9        29.83F
WAHOO          FAIR      78  70  76 S8        29.81S
$$



 

View Past Reports for Omaha, NE.

Products Courtesy of NOAA-NWS
NWS Information Parsing Script by Ken True at Saratoga Weather - Script by SE Lincoln Weather.